User: anonymous
Location: Caltech
(34.1382°N, 118.1253°W)
Time: 21:01:30
(UTC-07:00)
Language:

Iridium 14 - Orbit

View from above orbital plane
View from above orbital plane
View from above satellite
View from above satellite

Ground track
Ground track

The orbit data is extracted from the following two-line orbital elements,

1 25777U 99032A   14273.45895500  .00000262  00000-0  86328-4 0  1009
2 25777 086.3919 278.0387 0002280 095.4745 016.2918 14.34221052812672
Epoch (UTC): 30 September 2014 11:00:53
Eccentricity: 0.0002280
inclination: 86.3919°
perigee height: 776 km
apogee height: 779 km
right ascension of ascending node: 278.0387°
argument of perigee: 95.4745°
revolutions per day: 14.34221052
mean anomaly at epoch: 16.2918°
orbit number at epoch: 81267

The dashed part of the orbit path shows where the satellite is in the earth's shadow,  

DLR